This demonstration page uses our WeatherBlox Daily Observations layout. Learn more.

Left ArrowRight Arrow

34.02893, -84.19858

Hourly Observations for June 9, 2020

Temp ( °F °C ) Dew Point ( °F °C ) Humidity (%) Winds ( mph kmh ) Pressure ( in mb ) Visibility ( mi km ) Precip ( " mm )
12:53 am 00:53 Mostly Cloudy 75 23.9 73 22.8 94 94 VRB 5 7 29.91 1013 10 16 0.00 0.00
1:14 am 01:14 Partly Cloudy 75 23.9 73 22.8 94 94 Calm 29.93 1014 10 16 0.00 0.00
1:53 am 01:53 Clear 75 23.9 73 22.8 94 94 Calm 29.91 1013 10 16 0.00 0.00
2:53 am 02:53 Clear 74 23.3 72 22.2 94 94 Calm 29.91 1013 10 16 0.00 0.00
3:35 am 03:35 Mostly Clear 73 22.8 72 22.2 96 96 VRB 3 6 29.92 1013 8 13 0.00 0.00
3:53 am 03:53 Partly Cloudy 73 22.8 72 22.2 96 96 Calm 29.91 1013 8 13 0.00 0.00
4:02 am 04:02 Mostly Cloudy 73 22.8 72 22.2 96 96 VRB 3 6 29.92 1013 8 13 0.00 0.00
4:39 am 04:39 Mostly Cloudy 73 22.8 72 22.2 96 96 Calm 29.92 1013 9 14 0.00 0.00
4:53 am 04:53 Cloudy 73 22.8 72 22.2 96 96 VRB 3 6 29.91 1013 9 14 0.00 0.00
5:07 am 05:07 Cloudy 73 22.8 72 22.2 96 96 SE 3 6 29.93 1014 10 16 0.00 0.00
5:14 am 05:14 Cloudy 73 22.8 72 22.2 96 96 SE 3 6 29.93 1014 10 16 0.00 0.00
5:22 am 05:22 Cloudy 73 22.8 72 22.2 96 96 SSE 5 7 29.93 1014 10 16 0.00 0.00
5:33 am 05:33 Cloudy 73 22.8 72 22.2 96 96 Calm 29.93 1014 10 16 0.00 0.00
5:53 am 05:53 Cloudy 73 22.8 72 22.2 96 96 VRB 3 6 29.92 1013 10 16 0.00 0.00
6:53 am 06:53 Cloudy 73 22.8 71 21.7 94 94 SE 3 6 29.93 1014 10 16 0.00 0.00
7:53 am 07:53 Cloudy 74 23.3 71 21.7 91 91 SSE 3 6 29.94 1014 10 16 0.00 0.00
8:18 am 08:18 Cloudy 74 23.3 71 21.7 91 91 SSE 3 6 29.96 1015 10 16 0.00 0.00
8:53 am 08:53 Cloudy 75 23.9 71 21.7 88 88 S 7 11 29.96 1015 10 16 0.00 0.00
9:04 am 09:04 Cloudy 75 23.9 71 21.7 88 88 S 9 15 29.98 1015 9 14 0.00 0.00
9:53 am 09:53 Mostly Cloudy 77 25 72 22.2 85 85 SSW 10 17 29.96 1015 10 16 0.00 0.00
10:53 am 10:53 Cloudy 78 25.6 71 21.7 79 79 S 10 17 29.96 1015 10 16 0.00 0.00
11:53 am 11:53 Cloudy 82 27.8 72 22.2 72 72 SSW 8 13 29.96 1014 10 16 0.00 0.00
12:53 pm 12:53 Cloudy 82 27.8 72 22.2 72 72 S 8 13 29.95 1014 10 16 0.00 0.00
1:00 pm 13:00 Mostly Cloudy 82 27.8 73 22.8 74 74 SSW 10 17 29.95 1014 10 16 0.00 0.00
1:53 pm 13:53 Mostly Cloudy 81 27.2 73 22.8 77 77 VRB 7 11 29.93 1014 10 16 0.00 0.00
2:15 pm 14:15 Partly Cloudy with Nearby Thunderstorms 82 27.8 74 23.3 77 77 SSE 5 7 29.92 1013 10 16 0.00 0.00
2:30 pm 14:30 Partly Cloudy 83 28.3 74 23.3 74 74 undefined N/A 29.92 1013 10 16 0.00 0.00
2:53 pm 14:53 Mostly Cloudy 84 28.9 74 23.3 72 72 SSE 6 9 29.91 1013 10 16 0.00 0.00
3:48 pm 15:48 Mostly Cloudy with Thunderstorms 81 27 70 21 70 70 S 7 11 29.91 1013 9 14 0.00 0.00
3:53 pm 15:53 Mostly Cloudy with Thunderstorms 79 26.1 72 22.2 79 79 S 9 15 29.92 1013 6 10 0.00 0.00
4:13 pm 16:13 Partly Cloudy with Nearby Thunderstorms 80 26.7 71 21.7 74 74 W 10 17 29.91 1013 10 16 0.00 0.00
4:44 pm 16:44 Mostly Cloudy with Light Rain 79 26.1 72 22.2 79 79 W 3 6 29.92 1013 10 16 0.00 0.00
4:53 pm 16:53 Mostly Cloudy 80 26.7 72 22.2 76 76 Calm 29.91 1013 10 16 0.00 0.00
5:19 pm 17:19 Mostly Cloudy 79 26.1 73 22.8 82 82 VRB 6 9 29.92 1013 10 16 0.00 0.00
5:36 pm 17:36 Cloudy with Rain 73 22.8 71 21.7 94 94 S 14 22 29.94 1014 2 2 0.10 2.54
5:53 pm 17:53 Cloudy with Heavy Rain 73 22.8 71 21.7 94 94 SSE 7 11 29.93 1014 1 1 0.38 9.65
5:56 pm 17:56 Cloudy with Heavy Rain 73 22.8 72 22.2 96 96 SE 3 6 29.94 1014 6 10 0.02 0.51
6:53 pm 18:53 Cloudy with Mist and Fog 74 23.3 73 22.8 97 97 Calm 29.94 1014 6 10 0.05 1.27
7:26 pm 19:26 Cloudy 74 23.3 73 22.8 97 97 Calm 29.95 1014 9 14 0.00 0.00
7:53 pm 19:53 Cloudy with Rain 75 23.9 74 23.3 96 96 Calm 29.95 1014 3 4 0.02 0.51
8:03 pm 20:03 Mostly Cloudy with Light Rain 74 23.3 74 23.3 100 100 Calm 29.96 1015 5 8 0.01 0.25
8:53 pm 20:53 Partly Cloudy 75 23.9 73 22.8 94 94 Calm 29.96 1015 8 13 0.02 0.51
9:53 pm 21:53 Mostly Clear 74 23.3 74 23.3 100 100 Calm 29.95 1014 8 13 0.00 0.00
10:18 pm 22:18 Mostly Cloudy 74 23.3 74 23.3 100 100 Calm 29.97 1015 8 13 0.00 0.00
10:53 pm 22:53 Partly Cloudy 74 23.3 73 22.8 97 97 Calm 29.97 1015 10 16 0.00 0.00
11:37 pm 23:37 Partly Cloudy 74 23.3 73 22.8 97 97 S 5 7 29.98 1015 10 16 0.00 0.00
11:53 pm 23:53 Mostly Clear 74 23.3 73 22.8 97 97 SSE 5 7 29.96 1014 10 16 0.00 0.00

Powered by AerisWeather